Wind_Speed
40 38 37 36 35 34 34 33 33 33 34 35 35 35 34 32 31 31 29 27 26 25 25 25 24 23 22 20 20 19 18 18 19 19 19 20 20 19 18 19 19 19
39 38 37 36 35 34 34 34 34 33 34 36 36 36 34 33 32 31 30 28 27 26 25 26 25 24 23 22 21 20 20 19 20 20 20 21 21 21 20 20 20 20
39 38 37 36 36 36 35 35 34 34 34 35 35 35 34 33 32 32 31 29 29 28 27 26 26 25 24 23 22 22 22 21 21 21 21 21 22 22 22 21 21 20
39 39 39 38 37 37 35 34 34 35 34 34 35 36 35 34 33 32 32 31 30 29 28 28 27 26 25 24 24 24 24 24 22 21 22 22 23 23 23 22 22 22
41 40 39 39 38 36 34 34 35 35 35 35 36 35 35 34 33 33 33 32 32 31 30 29 28 27 27 26 26 26 26 26 25 23 24 24 24 24 24 23 24 24
40 40 40 40 38 36 35 35 36 35 36 36 35 35 35 34 34 33 33 33 33 32 32 31 30 29 29 28 28 28 28 28 27 26 26 27 26 26 26 26 26 26
39 40 40 39 37 36 36 36 36 35 35 35 34 35 35 35 35 34 34 33 33 33 33 32 32 31 30 30 30 30 30 29 29 29 29 29 28 28 28 28 28 28
39 39 39 38 36 36 36 36 35 35 34 33 33 34 35 35 36 35 34 34 34 34 34 34 34 33 32 32 32 32 32 31 31 31 31 31 30 30 31 30 30 31
39 39 38 37 36 36 36 36 35 35 34 33 33 34 34 35 36 35 35 34 34 35 35 35 35 35 34 34 34 34 33 33 32 32 32 32 32 33 33 32 32 32
37 37 36 37 37 37 36 36 36 35 35 35 35 34 33 35 35 35 35 35 35 36 36 36 36 36 36 35 35 35 34 34 34 33 34 34 34 35 34 33 32 33
36 35 35 36 37 37 37 37 37 36 35 35 35 34 34 34 34 34 35 35 36 37 38 38 37 37 37 37 36 36 35 35 35 35 35 35 36 36 34 33 33 35
36 36 37 38 38 38 38 38 37 36 36 36 36 36 35 35 34 34 35 36 38 38 38 38 38 37 38 38 37 36 35 36 35 36 36 36 37 36 35 35 35 36
39 40 40 40 40 40 39 38 38 37 37 36 36 36 36 36 35 35 36 37 38 38 38 38 37 37 38 38 37 37 36 36 37 37 37 37 37 37 36 35 36 37
40 40 40 40 40 39 39 38 38 38 38 37 37 37 37 37 36 36 37 37 38 38 38 37 36 37 38 38 38 38 37 37 38 38 38 38 38 37 36 35 36 37
38 38 38 38 38 37 38 38 38 38 38 38 38 38 38 38 37 37 37 37 38 38 38 37 36 38 40 40 39 39 38 38 38 38 38 38 38 37 36 35 36 36
37 37 37 37 37 37 38 38 37 37 37 38 38 38 37 37 37 36 36 37 37 38 38 37 38 40 42 42 41 40 39 38 38 38 38 38 37 36 35 36 36 36
36 36 36 36 37 37 37 37 37 36 37 37 37 37 37 37 36 36 36 37 37 37 38 38 39 42 43 43 43 42 41 39 37 37 37 36 36 36 36 36 35 35
36 36 36 36 36 37 37 37 37 37 37 37 37 37 36 36 37 37 37 37 37 38 38 39 40 42 43 43 43 43 42 41 39 36 35 35 35 36 36 36 35 35
37 36 36 36 37 38 38 37 37 37 37 37 37 36 35 36 38 38 38 38 38 38 39 39 40 41 42 42 43 43 43 42 40 38 35 35 35 35 36 36 36 36
37 36 36 37 37 38 37 37 37 38 38 38 36 36 36 37 38 38 39 39 39 40 40 40 41 41 42 42 43 43 42 41 41 40 38 37 36 35 35 36 37 36
36 36 36 37 37 37 37 37 38 38 38 37 36 37 38 38 38 38 39 39 39 40 39 40 42 42 41 42 42 43 42 41 41 41 40 39 38 37 37 37 37 35
36 36 36 36 36 36 36 36 37 37 37 37 37 37 37 38 38 38 38 38 39 39 39 41 42 42 41 41 41 41 40 40 40 40 40 40 40 39 38 37 36 35
37 37 36 36 36 35 36 36 37 38 38 38 37 36 36 37 38 38 38 38 38 38 39 41 42 41 41 41 41 39 38 38 39 40 40 40 41 40 39 38 37 37
37 38 37 37 36 36 36 37 37 38 38 38 37 37 37 37 37 37 38 38 38 39 40 41 41 41 40 40 40 38 37 38 39 39 39 39 40 40 39 38 38 38
38 38 39 38 37 37 37 38 38 39 38 38 37 37 37 37 36 36 36 37 38 39 40 40 40 39 39 39 39 37 36 37 38 37 37 37 38 38 38 37 37 38
38 38 39 38 37 38 38 38 39 38 37 36 36 36 36 35 34 34 34 35 36 37 38 40 40 39 39 39 38 37 36 36 36 37 37 37 37 36 36 36 36 37
Wind_Direction
207 208 210 212 214 215 216 216 216 217 217 217 218 220 221 221 220 221 225 230 232 235 236 233 229 230 232 234 235 235 237 236 235 236 235 235 235 238 242 242 242 243
207 208 210 211 213 215 216 217 218 218 218 219 220 221 222 221 220 221 226 230 233 236 237 236 232 230 231 233 234 234 236 236 234 235 237 239 240 241 245 246 246 245
207 208 209 211 213 214 216 217 218 219 220 220 221 222 223 222 221 223 227 231 235 236 237 237 234 232 233 234 236 236 236 236 235 235 237 239 242 244 248 250 251 250
207 208 209 211 213 214 215 215 217 219 220 221 222 223 223 224 223 224 227 231 234 237 238 237 236 235 235 236 238 239 238 239 238 238 239 240 241 244 247 251 253 253
207 209 210 212 213 214 213 214 216 218 219 221 222 223 224 224 224 225 227 229 232 235 237 237 237 237 237 237 239 241 241 241 240 240 241 242 243 244 246 249 251 253
207 209 211 212 213 213 213 214 217 217 219 220 221 223 224 225 226 226 227 229 230 233 235 236 237 237 237 238 239 241 242 242 242 241 242 244 245 245 246 247 249 251
207 209 211 212 213 213 214 215 217 218 219 220 221 222 224 225 227 228 228 229 230 231 233 234 237 237 237 238 238 240 242 243 243 242 243 245 245 246 246 246 248 249
207 209 211 212 212 213 215 216 217 218 220 220 221 223 224 226 228 229 229 229 230 231 232 233 236 237 237 237 237 239 240 241 242 241 242 244 244 245 246 246 247 248
207 208 209 211 212 214 216 217 218 219 220 221 223 224 225 227 228 229 229 229 229 231 232 233 234 236 237 237 237 237 238 239 239 239 240 242 243 245 245 245 245 246
207 208 208 210 212 214 216 217 219 220 220 222 224 224 226 227 228 229 228 228 228 230 231 232 233 234 235 236 237 238 238 238 239 238 239 240 242 244 245 244 243 245
206 207 208 210 212 214 216 218 219 220 221 222 224 224 226 227 227 228 228 228 229 230 231 231 231 232 232 234 236 238 239 239 239 239 239 241 242 244 244 244 244 246
205 206 209 211 213 215 216 218 218 219 220 222 223 224 225 226 226 227 227 228 230 231 231 231 231 231 231 233 234 236 238 240 240 240 241 241 242 243 244 244 245 247
205 207 209 211 213 215 216 217 218 219 220 221 223 224 225 226 226 226 227 229 231 231 232 232 232 232 232 233 234 235 236 238 240 241 242 242 243 244 244 244 246 248
206 208 209 211 213 214 216 217 218 219 219 221 222 223 225 225 226 227 228 230 231 232 232 232 232 233 234 234 235 235 235 236 238 239 241 243 244 245 245 245 246 248
207 208 210 212 213 214 216 217 218 219 219 221 222 223 224 226 226 228 229 230 232 233 233 233 233 234 236 236 236 235 235 236 237 238 239 242 244 245 246 246 247 249
207 208 210 211 212 214 216 217 218 219 219 221 222 223 224 225 226 228 229 231 232 233 234 234 233 235 237 237 237 236 236 236 236 237 238 240 242 244 246 247 248 249
207 208 209 210 212 213 215 217 218 218 220 221 222 223 225 225 226 228 228 230 232 234 234 234 235 237 238 238 239 238 237 236 236 238 238 239 241 243 245 247 248 250
206 207 209 210 212 213 215 216 217 218 220 221 222 223 224 225 227 228 229 230 232 234 235 235 236 238 239 240 240 240 239 238 237 238 239 240 241 242 244 247 248 250
206 206 208 210 211 213 215 215 216 217 219 220 222 223 224 226 227 228 229 231 232 233 235 236 238 239 240 241 241 242 241 239 238 239 240 241 242 243 244 246 248 249
205 206 207 209 211 212 213 214 215 217 219 220 221 222 223 225 227 228 229 231 232 234 236 238 240 240 241 242 242 243 243 242 240 240 242 243 244 244 245 246 248 248
205 206 208 210 211 211 212 213 215 217 218 219 220 221 223 225 226 228 229 231 232 234 236 239 241 241 242 243 243 244 244 244 242 241 242 244 246 247 247 248 249 249
205 206 208 209 210 210 211 212 214 217 218 219 220 221 224 226 227 228 229 231 232 233 235 239 241 242 242 243 244 245 244 244 243 242 243 244 246 248 248 249 250 250
205 206 207 209 209 209 210 212 214 216 218 218 219 220 222 225 226 228 230 231 232 233 234 237 241 242 242 243 245 245 244 243 243 242 242 244 246 248 249 250 251 251
206 207 208 209 209 209 210 212 214 216 218 218 218 219 222 224 226 228 230 231 232 233 234 237 240 242 242 243 244 244 243 242 242 241 242 244 247 249 250 250 252 253
208 208 209 209 210 210 211 213 215 217 218 218 218 219 222 224 225 227 229 230 232 233 235 237 240 242 242 243 244 243 242 242 241 239 240 243 246 248 250 251 252 253
209 209 210 210 211 212 213 214 216 217 218 218 218 220 223 225 225 226 228 230 231 233 235 237 239 241 242 243 243 242 241 242 240 237 238 241 244 246 249 251 252 253
Height
798 801 804 806 808 810 812 815 816 818 819 820 822 823 824 826 829 831 833 834 835 836 837 838 840 841 842 843 845 846 847 847 848 849 849 850 851 851 851 852 852 853
796 799 802 804 806 809 810 813 815 816 818 819 820 821 823 825 827 829 831 832 834 835 835 837 838 839 841 842 843 844 845 846 847 847 848 848 849 849 850 850 850 851
794 796 799 801 803 806 808 810 813 814 816 818 819 820 822 823 826 827 829 831 832 833 834 835 836 838 839 840 841 842 843 844 845 846 846 847 848 848 848 849 849 849
791 793 796 799 801 803 806 808 811 812 814 816 817 819 820 822 824 825 827 829 830 831 832 833 835 836 837 838 839 840 841 842 843 844 845 845 846 847 847 847 848 848
788 791 793 796 798 801 804 806 807 809 812 813 815 817 819 820 822 823 825 827 828 829 831 832 833 834 835 837 837 838 839 840 841 842 843 843 844 845 845 846 846 846
785 788 790 793 796 799 801 802 804 807 809 811 813 815 817 818 820 821 823 824 826 827 828 830 831 832 833 834 835 836 837 838 839 840 841 841 842 843 844 844 844 844
782 785 788 791 794 797 798 800 802 804 806 809 811 813 815 816 818 819 820 822 824 825 826 827 828 829 831 832 833 834 834 836 837 838 838 839 840 841 841 842 842 842
779 782 786 789 792 794 796 798 800 802 804 807 809 811 812 814 815 817 818 820 821 823 824 825 826 827 828 829 830 831 832 833 834 835 836 836 837 838 838 839 840 840
777 780 783 786 789 791 793 796 798 800 802 804 806 808 810 811 813 814 816 818 819 820 821 822 823 824 826 826 827 828 829 830 832 832 833 834 834 834 835 836 837 837
774 777 781 783 786 788 790 793 795 797 800 801 803 806 807 809 810 812 814 815 816 818 818 819 820 821 823 824 824 826 827 828 829 830 830 831 831 832 833 834 835 835
772 775 778 780 783 785 787 790 792 794 796 798 800 803 804 806 808 809 811 812 813 814 815 816 817 819 820 821 822 823 824 825 826 827 828 828 828 829 830 832 832 832
769 772 774 777 779 782 784 787 789 791 793 795 797 799 801 803 805 806 807 809 809 810 812 813 815 816 817 818 819 821 822 823 823 824 824 825 825 826 828 829 830 829
764 766 769 772 775 778 781 783 786 788 789 791 794 796 798 799 801 803 804 805 806 807 809 810 812 814 814 815 817 818 819 820 820 821 821 822 822 823 825 826 827 827
760 763 765 768 772 775 778 780 782 784 786 788 790 792 794 795 797 799 800 802 803 804 806 808 810 811 811 812 813 815 816 816 817 818 818 819 819 820 822 823 824 824
757 760 763 766 769 772 775 777 779 781 783 785 787 788 790 792 794 796 797 799 800 801 803 805 806 806 807 808 809 810 812 813 814 815 815 816 817 818 819 820 821 821
754 757 760 763 766 768 771 773 776 778 780 782 783 785 787 789 791 793 794 795 797 798 799 801 802 802 802 803 805 807 808 809 811 811 812 813 814 815 816 817 817 818
751 754 757 760 762 765 767 770 773 775 777 778 780 782 784 786 788 789 790 792 793 794 796 797 797 797 798 800 802 803 805 806 807 808 809 811 812 812 813 813 814 815
747 750 753 756 758 761 764 766 769 772 773 775 776 778 781 782 784 785 786 788 789 790 791 792 792 793 795 797 798 800 802 803 804 806 807 808 808 809 810 811 812 812
743 746 749 752 754 757 760 763 765 767 769 771 773 775 777 778 779 781 782 784 785 786 787 788 788 790 791 793 795 796 798 800 802 803 804 804 805 806 807 808 808 809
739 742 744 747 750 753 756 758 761 762 764 767 769 771 773 773 774 776 777 779 780 782 783 784 784 786 788 790 791 793 795 797 799 800 801 801 802 803 804 804 805 806
735 738 741 743 746 749 752 754 756 758 760 763 765 766 767 768 770 772 773 774 776 778 779 779 780 782 784 786 787 789 792 794 796 797 797 798 799 800 800 800 801 803
731 734 737 739 742 745 747 750 752 754 756 758 760 762 763 764 766 767 768 770 772 774 775 775 775 778 780 782 783 786 789 791 792 793 794 794 795 795 796 797 798 800
727 730 732 735 738 740 743 745 747 749 751 753 755 757 758 759 761 762 764 766 768 770 770 770 771 773 776 778 780 783 785 787 788 789 790 790 790 791 793 794 795 795
723 725 728 730 733 735 738 740 742 744 746 748 750 751 753 754 756 758 760 762 763 764 766 766 767 769 772 774 775 779 781 782 784 785 785 786 786 787 788 789 790 791
718 720 723 725 728 730 733 735 737 739 741 743 745 746 748 750 752 754 756 757 759 760 762 763 764 765 768 769 771 774 777 778 780 781 781 782 782 783 784 785 786 787
714 716 718 721 723 726 728 730 732 734 736 739 741 742 744 746 748 750 752 753 755 757 758 759 760 761 763 765 767 770 772 773 775 776 776 777 778 779 780 780 781 782